Location: Kalberh�ni
(46.4610°N, 7.2453°E)
Time: 10:33:35
(UTC+00:00)

Nauka - Visible Passes

Search period start: 21 September 2021 00:00
Search period end: 01 October 2021 00:00
Orbit: 419 x 423 km, 51.6° (Epoch: 20 September)

Date Brightness Start Highest point End Pass type
(mag) Time Alt. Az. Time Alt. Az. Time Alt. Az.
21 Sep ? 18:07:36 10° WSW 18:10:58 88° SSE 18:14:21 10° ENE visible
21 Sep ? 19:44:57 10° WNW 19:47:52 34° NNW 19:47:52 34° NNW visible
22 Sep ? 18:57:52 10° W 19:01:05 39° NNW 19:02:48 22° NE visible
22 Sep ? 20:35:17 10° WNW 20:35:48 13° WNW 20:35:48 13° WNW visible
23 Sep ? 18:10:48 10° W 18:14:05 48° NNW 18:17:23 10° ENE visible
23 Sep ? 19:48:18 10° WNW 19:50:41 29° NNW 19:50:41 29° NNW visible
24 Sep ? 19:01:16 10° WNW 19:04:21 32° N 19:05:32 25° NE visible
24 Sep ? 20:38:22 10° WNW 20:38:31 11° WNW 20:38:31 11° WNW visible
25 Sep ? 18:14:11 10° WNW 18:17:19 34° N 18:20:22 11° ENE visible
25 Sep ? 19:51:27 10° WNW 19:53:21 27° NW 19:53:21 27° NW visible
26 Sep ? 19:04:31 10° WNW 19:07:39 35° N 19:08:11 32° NNE visible
27 Sep ? 18:17:30 10° WNW 18:20:36 32° N 18:23:00 15° ENE visible
27 Sep ? 19:54:28 10° WNW 19:55:59 24° NW 19:55:59 24° NW visible
28 Sep ? 19:07:34 10° WNW 19:10:49 49° NNE 19:10:49 49° NNE visible
29 Sep ? 18:20:37 10° WNW 18:23:50 40° NNE 18:25:41 21° ENE visible
29 Sep ? 19:57:29 10° WNW 19:58:40 20° WNW 19:58:40 20° WNW visible
30 Sep ? 19:10:31 10° WNW 19:13:34 70° WNW 19:13:34 70° WNW visible
